STARLINK-3116, 49146

Orbit data source: Space-Track

STARLINK-3116, 49146 is a payload satellite owned by SpaceX/Seattle (US) in LEO that was launched on Tue, 14 Sep 2021 UTC via an FALCON 9 launch vehicle from the Air Force Western Test Range (AFWTR). Payload-class satellites include a variety of spacecraft equipped with specific instruments for various scientific and technological missions. These include communications satellites like Starlink; space stations such as the ISS; scientific satellites like the Hubble; Earth observation satellites from companies like Planet Labs, Umbra, and HawkEye 360; GPS; miniature CubeSats for education and research; and military/defense satellites.

Loading next visibility...
Identifier
49146, 2021-082S
Orbit
LEO
Country
Flag of USUS
Related business
Manufacturer
SpaceX/Seattle
Mission
Operational Commercial Communications
Bus & Motor
STARLINK, Unknown motor
Mass
297 kg wet, ~275 kg dry
Launch date (UTC)
2021-09-14 (5 years ago)
Launch vehicle
FALCON 9
Launch site
Air Force Western Test Range (AFWTR)
Object type
Payload
Rocket body
Debris
Shape & HBR
Box + 1 Pan, 10.1 m
Radar Cross Section
13.562 m², Large (>1 m²)

Expand to show TLE details & history
Last TLE update: 2 days ago

TLE from 2 days ago
0 STARLINK-3116
1 49146U 21082S   26171.27097698  .00000219  00000-0  26603-4 0  9995
2 49146  69.9996  16.9326 0002628 268.1917  91.8941 14.97524998262968
Epoch: 2026-06-20T06:30Z
TLE epoch observation values (Epoch: 2026-06-20T06:30:12.411Z)
Latitude
0.00003°
Longitude
10.8929°
Altitude
577.03 km
Speed
7.572 km/s
True Right ascension
01h 07m 43s
True Declination
0° 00' 00"
Sunlit
Object was in daylight at epoch
Visualization orbit readout
Latitude
Unknown
Longitude
Unknown
Altitude
Unknown
Speed
Unknown
Apparent Right ascension
Unknown
Apparent Declination
Unknown
Sunlit
N/A
Visualization observer readout
Local Sidereal Time
21:40:21
Azimuth
Unknown
Elevation
Unknown
Doppler factor
Unknown
Orbital elements
Apogee altitude
574.322 km
Perigee altitude
570.669 km
Semi-major axis
6,950.632 km
Eccentricity
0.00026
Inclination
69.9996°
RAAN
16.9326°
Arg. of periapsis
268.1917°
True anomaly
91.9242°
Mean anomaly
91.8941°
Eccentric anomaly
91.90915°
Mean motion
3.74547 °/min
Orbital period
96.12 mins
BSTAR
0.000026603
Loading maneuver chart data...
Computing Atmospheric mass density...

Documentation

Showing up to 5 results
|